Regional Weather Roundup
Issued by NWS Charleston, WV

Home | Current Version | Previous Version | Graphics & Text | Print | Product List | Glossary On
Versions: 1 2 3 4 5 6 7 8 9 10 11 12 13 14 15 16 17 18 19 20 21 22 23 24 25 26 27 28 29 30 31 32 33 34 35 36 37 38 39 40 41 42 43 44 45 46 47
000
ASUS41 KRLX 191610
RWRRLX
West Virginia Regional Weather Roundup
National Weather Service Charleston WV
1100 AM EST SUN FEB 19 2017

Note: "fair" indicates few or no clouds below 12,000 feet with no
significant weather and/or obstructions to visibility.

WVZ003-191700-
Northern Panhandle of West Virginia

CITY           SKY/WX    TMP DP  RH WIND       PRES   REMARKS
WHEELING       PTSUNNY   52  43  71 SW9       30.01S
$$

WVZ009-191700-
Northwest West Virginia

CITY           SKY/WX    TMP DP  RH WIND       PRES   REMARKS
PARKERSBURG    CLOUDY    50  46  86 SW7       30.09R
$$

WVZ006-191700-
Western West Virginia

CITY           SKY/WX    TMP DP  RH WIND       PRES   REMARKS
HUNTINGTON     CLOUDY    50  45  83 W6        30.10R
$$

WVZ015-191700-
West Central West Virginia

CITY           SKY/WX    TMP DP  RH WIND       PRES   REMARKS
CHARLESTON     CLOUDY    50  47  89 W7        30.09R
$$

WVZ022-031-191700-
North Central West Virginia

CITY           SKY/WX    TMP DP  RH WIND       PRES   REMARKS
CLARKSBURG     CLOUDY    49  45  86 SW9       30.05R
MORGANTOWN     CLOUDY    49  43  80 SW5       30.05R FOG
$$

WVZ025-035-042-045-191700-
Southern West Virginia

CITY           SKY/WX    TMP DP  RH WIND       PRES   REMARKS
BECKLEY        CLOUDY    45  43  93 NW8       30.07S FOG
LOGAN          CLOUDY    48  48 100 CALM      30.10R FOG
BLUEFIELD      CLOUDY    43  42  97 NW9       30.09R FOG
LEWISBURG      CLOUDY    46  42  86 CALM      30.05S
$$

WVZ047-191700-
Northern Mountains of West Virginia

CITY           SKY/WX    TMP DP  RH WIND       PRES   REMARKS
ELKINS         CLOUDY    47  41  80 NW10      30.06R
$$

WVZ052-191700-
Eastern Panhandle of West Virginia

CITY           SKY/WX    TMP DP  RH WIND       PRES   REMARKS
MARTINSBURG    SUNNY     62  43  49 NW12G17   29.95R
PETERSBURG     PTSUNNY   60  46  59 W9        30.01R
$$




USA.gov is the U.S. government's official web portal to all federal, state and local government web resources and services.